User: anonymous   Login
Location: Beugnon
(47.6222°N, 3.7850°E)
Time: 21:17:27
(UTC+00:00)
Language:

STARLINK-1240 - Orbit

View from above orbital plane
View from above orbital plane
View from above satellite
View from above satellite

Ground track
Ground track

The orbit data is extracted from the following two-line orbital elements,

1 45194U 20012S   20185.66668981 -.00032694  00000-0 -22336-2 0  9998
2 45194  52.9994   1.7580 0001425 113.8447 246.3512 15.05603307 21167
Epoch (UTC): 03 July 2020 16:00:02
Eccentricity: 0.0001425
inclination: 52.9994°
perigee height: 548 km
apogee height: 550 km
right ascension of ascending node: 1.7580°
argument of perigee: 113.8447°
revolutions per day: 15.05603307
mean anomaly at epoch: 246.3512°
orbit number at epoch: 2116

The dashed part of the orbit path shows where the satellite is in the earth's shadow,  

DLR